Home > Weather > Sinsheim > Past weeks

Flag for Germany Weather for the Past 2 Weeks in Sinsheim, Baden-Württemberg, Germany

Now
36 °F

Sunny.


Feels Like: 36 °F
Forecast: 46 / 62 °F
Wind: 1 mph from North

Location: Stuttgart-Echterdingen

Current Time: Apr 30, 2016 at 7:51:25 AM

Latest Report: Apr 30, 2016 at 7:20 AM


Visibility: 10 mi

Pressure: 30.01 "Hg

Humidity: 93%

Dew Point: 34 °F

Location of SinsheimLocation

Historic Weather in Sinsheim — Graph

°F

Sinsheim Temperature Yesterday

Maximum temperature yesterday: 59 °F (at 5:20 PM)
Minimum temperature yesterday: 30 °F (at 3:50 AM)
Average temperature yesterday: 45 °F

High & Low Weather Summary for the Past Weeks

 TemperatureHumidityPressure
High68 °F (Apr 21, 3:50 PM)100% (Apr 16, 4:20 AM)30.39 "Hg (Apr 16, 4:20 AM)
Low30 °F (Apr 29, 3:50 AM)24% (Apr 21, 6:20 PM)29.56 "Hg (Apr 26, 5:50 AM)
Average46 °F73%29.95 "Hg
* Reported Apr 15 6:50 AM — Apr 30 6:20 AM, Sinsheim, Weather by CustomWeather, © 2016

Note: Actual official high and low records may vary slightly from our data, if they occured in-between our weather recording intervals... More about our weather records

Advertising

Sinsheim Weather History for the Previous 24 Hours

Scroll right to see more
 ConditionsComfort  
Time TempWeatherWind HumidityBarometerVisibility
6:20 AM
Sat, Apr 30
34 °FClear.1 mph93%30.01 "Hg10 mi
5:50 AM34 °FClear.1 mph93%30.01 "Hg10 mi
5:20 AM36 °FClear.1 mph87%30.01 "Hg10 mi
4:20 AM37 °FClear.No wind81%30.01 "Hg10 mi
3:50 AM37 °FClear.No wind81%30.01 "Hg10 mi
3:20 AM37 °FClear.2 mph81%30.01 "Hg10 mi
2:50 AM37 °FClear.6 mph87%30.01 "Hg10 mi
1:50 AM39 °FClear.5 mph75%30.01 "Hg10 mi
1:20 AM39 °FClear.2 mph81%30.01 "Hg10 mi
12:50 AM41 °FClear.3 mph76%30.01 "Hg10 mi
12:20 AM41 °FClear.6 mph76%30.04 "Hg10 mi
11:50 PM
Fri, Apr 29
41 °FClear.3 mph76%30.04 "Hg10 mi
11:20 PM45 °FClear.2 mph66%30.04 "Hg10 mi
10:50 PM46 °FClear.1 mph62%30.04 "Hg10 mi
10:20 PM48 °FClear.1 mph58%30.04 "Hg10 mi
9:50 PM50 °FPassing clouds.3 mph54%30.04 "HgN/A
9:20 PM52 °FPassing clouds.6 mph50%30.04 "HgN/A
8:50 PM52 °FPassing clouds.5 mph50%30.01 "HgN/A
8:20 PM54 °FSunny.7 mph47%30.01 "Hg10 mi
7:50 PM54 °FPassing clouds.7 mph47%30.01 "HgN/A
7:20 PM55 °FPassing clouds.5 mph44%30.01 "HgN/A
6:50 PM57 °FPassing clouds.7 mph41%30.01 "HgN/A
6:20 PM59 °FPassing clouds.5 mph36%30.01 "HgN/A
5:50 PM59 °FPassing clouds.3 mph34%30.01 "HgN/A
5:20 PM59 °FPassing clouds.3 mph36%30.01 "HgN/A
4:50 PM57 °FSunny.3 mph39%30.01 "Hg10 mi
4:20 PM57 °FPassing clouds.6 mph36%30.01 "HgN/A
3:50 PM55 °FPassing clouds.6 mph38%30.01 "HgN/A
3:20 PM55 °FSunny.2 mph38%30.04 "Hg10 mi
2:50 PM55 °FSunny.3 mph38%30.04 "Hg10 mi
2:20 PM55 °FPassing clouds.7 mph41%30.04 "HgN/A
1:50 PM54 °FSunny.5 mph38%30.04 "Hg10 mi
1:20 PM52 °FPartly sunny.9 mph44%30.04 "HgN/A
12:50 PM54 °FPartly sunny.8 mph41%30.04 "HgN/A
12:20 PM52 °FPartly sunny.10 mph41%30.04 "HgN/A
11:50 AM52 °FPartly sunny.8 mph44%30.07 "HgN/A
11:20 AM52 °FPartly sunny.7 mph47%30.07 "HgN/A
10:50 AM50 °FScattered clouds.3 mph50%30.07 "HgN/A
10:20 AM50 °FPassing clouds.3 mph58%30.07 "HgN/A
9:50 AM46 °FPassing clouds.3 mph71%30.07 "HgN/A
9:20 AM43 °FPassing clouds.3 mph76%30.07 "HgN/A
8:50 AM39 °FSunny.2 mph87%30.07 "Hg10 mi
8:20 AM36 °FPassing clouds.3 mph93%30.07 "HgN/A
7:20 AM30 °FSunny.2 mph100%30.07 "Hg10 mi
Weather by CustomWeather, © 2016

See weather overviewHow to use our weather pages